Flag for Canada Weather past 2 weeks in Toronto, Ontario, Canada

Now
19 °F

Overcast.


Feels Like: 9 °F
Forecast: 13 / 26 °F
Wind: 8 mph from Southwest

Location: Toronto Pearson International Airport

Current Time: Mar 2, 2015 at 3:18:09 AM

Latest Report: Mar 2, 2015 at 2:00 AM


Visibility: 15 mi

Pressure: 30.15 "Hg

Humidity: 79%

Dew point: 14 °F

Location of TorontoLocation

Historic Weather in Toronto — Graph

°F

Toronto temperature yesterday

Maximum temperature yesterday: 25 °F (at 1:00 PM)
Minimum temperature yesterday: 10 °F (at 12:00 AM)
Average temperature yesterday: 19 °F

Past Weeks' High & Low Weather Summary

 TemperatureHumidityPressure
High25 °F (Feb 22, 2:00 PM)93% (Feb 21, 7:00 PM)30.80 "Hg (Feb 21, 7:00 PM)
Low-13 °F (Feb 15, 6:00 AM)24% (Feb 17, 3:00 PM)29.60 "Hg (Feb 25, 2:00 AM)
Average7 °F64%30.21 "Hg
* Reported Feb 15 2:00 AM — Mar 2 2:00 AM, Toronto, Weather by CustomWeather, © 2015

Note: Actual official high and low records may vary slightly from our data, if they occured in-between our weather recording intervals... More about our weather records

Advertising

Toronto weather history for previous 24 hours

 ConditionsComfort  
Time TempWeatherWind HumidityBarometerVisibility
2:00 AM
Mon, Mar 2
19 °FOvercast.8 mph79%30.15 "Hg15 mi
1:00 AM19 °FOvercast.12 mph73%30.16 "Hg15 mi
12:00 AM19 °FOvercast.7 mph73%30.16 "Hg15 mi
11:00 PM
Sun, Mar 1
19 °FPassing clouds.10 mph73%30.16 "Hg15 mi
10:00 PM21 °FPassing clouds.10 mph74%30.17 "Hg15 mi
9:00 PM23 °FPassing clouds.10 mph74%30.19 "Hg15 mi
8:00 PM23 °FPassing clouds.13 mph74%30.19 "Hg15 mi
7:00 PM25 °FPartly cloudy.8 mph69%30.20 "Hg15 mi
6:00 PM25 °FPartly sunny.9 mph74%30.20 "Hg12 mi
5:00 PM25 °FMore clouds than sun.7 mph80%30.22 "Hg12 mi
4:00 PM25 °FMostly cloudy.6 mph80%30.25 "Hg12 mi
3:00 PM25 °FOvercast.6 mph74%30.26 "Hg12 mi
2:00 PM25 °FMore clouds than sun.7 mph63%30.29 "Hg12 mi
1:00 PM25 °FOvercast.6 mph69%30.33 "Hg12 mi
12:00 PM23 °FBroken clouds.5 mph68%30.36 "Hg12 mi
11:48 AM21 °FPartly sunny.2 mph74%30.35 "Hg12 mi
11:00 AM21 °FLight snow. More clouds than sun.2 mph68%30.40 "Hg8 mi
10:00 AM19 °FLight snow. Broken clouds.2 mph73%30.42 "Hg12 mi
9:00 AM16 °FLight snow. Broken clouds.No wind79%30.44 "Hg6 mi
8:00 AM16 °FLight snow. Overcast.7 mph73%30.46 "Hg6 mi
7:45 AM16 °FLight snow. Overcast.7 mph73%30.47 "Hg6 mi
7:00 AM12 °FMostly cloudy.6 mph79%30.47 "Hg8 mi
6:00 AM14 °FMostly cloudy.2 mph73%30.49 "Hg15 mi
5:00 AM12 °FOvercast.3 mph79%30.51 "Hg15 mi
4:00 AM12 °FOvercast.3 mph73%30.54 "Hg15 mi
3:00 AM12 °FOvercast.5 mph73%30.57 "Hg15 mi
Weather by CustomWeather, © 2015

See weather overviewHow to use our weather pages